Home   Weather   Kempen   Past weeks

Flag for Germany Past Weather in Kempen, North Rhine-Westphalia, Germany — Yesterday and Last 2 Weeks

Now
68 °F

Clear.


Feels Like: 68 °F
Forecast: 52 / 77 °F
Wind: 5 mph from Northeast

Location: Monchengladbach Airport

Current Time: Aug 30, 2016 at 9:08:50 PM

Latest Report: Aug 30, 2016 at 8:20 PM


Visibility: 10 mi

Pressure: 30.21 "Hg

Humidity: 49%

Dew Point: 48 °F

Location of KempenLocation

Past Weather in Kempen — Graph

°F

Kempen Temperature Yesterday

Maximum temperature yesterday: 72 °F (at 3:50 PM)
Minimum temperature yesterday: 63 °F (at 10:50 AM)
Average temperature yesterday: 67 °F

High & Low Weather Summary for the Past Weeks

 TemperatureHumidityPressure
High93 °F (Aug 27, 5:20 PM)100% (Aug 22, 9:50 AM)30.33 "Hg (Aug 22, 9:50 AM)
Low50 °F (Aug 30, 6:50 AM)26% (Aug 25, 4:50 PM)29.77 "Hg (Aug 18, 2:50 PM)
Average74 °F59%30.04 "Hg
* Reported Aug 15 7:20 PM — Aug 30 7:50 PM, Kempen, Weather by CustomWeather, © 2016

Note: Actual official high and low records may vary slightly from our data, if they occured in-between our weather recording intervals... More about our weather records

Advertising

Kempen Weather History for the Previous 24 Hours

Scroll right to see more
 ConditionsComfort  
Time TempWeatherWind HumidityBarometerVisibility
7:50 PM
Tue, Aug 30
70 °FClear.3 mph50%30.21 "Hg10 mi
7:20 PM73 °FClear.3 mph41%30.21 "Hg10 mi
6:50 PM73 °FPassing clouds.5 mph38%30.21 "HgN/A
6:20 PM75 °FPassing clouds.5 mph34%30.24 "HgN/A
5:50 PM75 °FPassing clouds.7 mph34%30.24 "HgN/A
5:20 PM75 °FPassing clouds.6 mph36%30.24 "HgN/A
4:50 PM75 °FClear.5 mph36%30.24 "Hg10 mi
4:20 PM73 °FClear.3 mph41%30.24 "Hg10 mi
3:50 PM75 °FClear.3 mph36%30.27 "Hg10 mi
3:20 PM73 °FPassing clouds.6 mph41%30.27 "HgN/A
2:50 PM73 °FPassing clouds.6 mph38%30.27 "HgN/A
2:20 PM73 °FClear.3 mph44%30.30 "Hg10 mi
1:50 PM72 °FClear.3 mph50%30.30 "Hg10 mi
1:20 PM72 °FPassing clouds.3 mph50%30.30 "HgN/A
12:50 PM72 °FPassing clouds.2 mph53%30.30 "HgN/A
12:20 PM70 °FPassing clouds.5 mph57%30.30 "HgN/A
11:50 AM68 °FPassing clouds.5 mph56%30.33 "HgN/A
11:20 AM68 °FPassing clouds.5 mph60%30.33 "HgN/A
10:50 AM66 °FSunny.2 mph68%30.33 "Hg10 mi
10:20 AM64 °FSunny.1 mph73%30.33 "Hg10 mi
9:50 AM64 °FSunny.1 mph78%30.30 "Hg10 mi
9:20 AM63 °FSunny.No wind83%30.30 "Hg10 mi
8:50 AM57 °FSunny.1 mph94%30.30 "Hg10 mi
8:20 AM55 °FSunny.2 mph94%30.30 "Hg10 mi
7:50 AM54 °FSunny.1 mph94%30.30 "Hg10 mi
7:20 AM52 °FLight fog.No wind94%30.27 "HgN/A
6:50 AM50 °FLight fog.2 mph100%30.27 "HgN/A
Weather by CustomWeather, © 2016

See weather overviewHow to use our weather pages